SCP
6 6 6 5 5 5 4 3 3 3 2 2 2 3 3 3 2 2 2 2 2 1 1 1 1 1 1 1 0 0 0 1 1 1 1 1 1 1
6 6 6 6 6 5 5 4 4 4 3 3 3 3 3 2 2 3 3 3 2 2 1 1 1 1 0 0 0 0 0 0 0 1 1 1 1 1
7 7 7 8 7 7 6 5 5 5 4 3 3 3 3 2 3 4 4 3 3 2 2 1 1 1 0 0 0 0 0 0 0 0 0 0 1 1
8 8 9 10 10 9 7 6 5 4 4 3 3 3 3 3 5 6 5 3 2 2 2 2 1 1 0 0 0 0 0 0 0 0 0 0 0 0
10 10 11 11 11 9 6 5 4 3 3 3 3 3 3 3 5 5 5 5 3 2 2 2 2 1 1 0 0 0 0 0 0 0 0 0 0 0
11 11 11 11 9 6 5 4 3 3 4 4 4 3 3 4 4 5 6 8 5 3 3 3 3 2 1 1 0 0 0 0 0 0 0 0 0 0
10 9 8 7 5 4 3 3 3 4 4 4 4 4 4 5 5 5 6 7 6 4 4 4 4 4 3 2 1 0 0 0 0 0 0 0 0 0
7 7 6 4 3 3 2 2 3 3 3 3 3 4 4 6 6 6 5 5 5 4 4 3 4 4 4 3 1 0 0 0 0 0 0 0 0 0
5 5 4 3 3 2 2 2 2 2 2 3 3 4 5 6 7 7 6 6 6 5 4 3 3 3 3 3 2 0 0 0 0 0 0 0 0 0
3 3 3 3 3 2 2 2 2 2 2 2 4 5 5 6 7 7 6 6 6 5 4 3 3 3 2 2 1 0 0 0 0 0 0 0 0 0
2 2 3 3 3 3 3 3 3 3 3 3 4 4 5 5 5 6 6 6 5 5 4 3 3 2 2 2 1 1 1 0 0 0 0 0 0 0
2 3 3 3 3 3 3 4 5 5 5 5 5 5 5 5 5 5 6 6 5 5 4 4 3 3 2 2 1 1 1 1 0 0 0 0 0 0
2 2 2 2 2 2 3 4 5 6 6 6 6 7 7 7 6 6 5 5 5 4 4 4 4 3 2 2 1 1 1 1 1 1 0 0 0 0
2 2 2 1 1 1 1 3 4 5 6 7 7 8 8 9 8 7 6 5 5 4 4 4 4 3 2 1 1 1 1 1 1 1 1 1 0 0
2 1 1 1 2 2 2 2 3 5 7 7 7 7 8 9 9 8 7 6 5 4 4 3 3 3 2 1 1 1 1 1 1 1 1 1 1 1
2 2 2 2 3 4 4 4 5 7 7 7 7 7 8 9 9 8 6 5 5 4 3 3 3 2 2 1 1 1 1 1 1 1 1 1 1 1
2 3 4 5 5 5 6 7 8 8 7 7 7 7 7 8 8 7 5 4 4 3 3 3 3 3 2 2 1 1 1 1 1 1 2 2 2 2
2 4 5 5 6 7 8 9 10 9 8 8 7 6 6 6 6 9 11 8 3 2 2 3 3 3 3 2 1 1 1 1 1 1 2 2 2 2
2 3 4 4 4 6 8 9 10 11 10 7 5 5 5 4 4 11 17 10 3 2 2 2 3 3 3 2 2 1 1 1 1 1 2 2 2 2
2 3 3 3 3 4 5 7 9 10 8 6 5 4 4 3 2 7 10 7 3 2 2 2 2 3 3 3 2 2 1 1 1 1 2 2 1 1
2 3 3 2 2 2 3 4 7 8 6 5 5 4 3 2 2 2 3 3 3 2 2 2 2 3 3 3 3 2 2 1 1 1 1 2 2 1
2 2 3 2 2 3 4 5 6 6 6 5 4 3 2 2 2 2 2 3 3 2 2 2 2 3 3 4 3 3 2 2 1 0 1 1 1 2
3 2 2 2 3 4 6 6 5 5 5 5 4 3 2 2 2 2 2 3 3 3 2 2 3 3 3 4 4 4 3 2 1 0 0 0 1 1
Wind_Speed
2 2 2 3 3 3 2 2 2 3 3 2 1 1 1 1 3 2 2 5 6 7 7 7 7 7 7 7 7 7 7 8 8 8 9 9 9 9
2 2 3 3 3 3 3 2 2 2 3 2 2 2 2 1 1 2 2 5 7 8 8 8 8 8 8 8 7 7 7 8 8 9 9 9 9 9
3 3 3 3 3 3 3 3 2 2 3 3 2 2 1 1 1 2 3 3 4 8 9 8 8 9 8 8 8 8 8 7 8 9 9 9 9 10
3 3 4 3 3 3 2 3 3 2 3 4 3 2 2 2 2 3 3 3 3 6 9 9 9 9 9 8 8 8 8 8 7 7 8 8 9 9
3 3 3 3 3 2 3 3 3 3 2 3 4 2 2 2 2 3 4 3 4 4 8 9 9 9 9 9 9 9 8 8 7 7 7 8 8 9
3 3 3 2 3 3 3 3 3 3 3 3 3 2 2 2 1 2 3 2 3 4 3 5 7 9 9 9 9 9 9 8 8 8 8 8 8 8
3 3 2 2 3 3 4 3 3 3 3 3 3 3 2 2 2 3 3 3 3 3 1 3 3 4 5 8 9 10 9 9 8 8 8 8 8 8
3 3 3 2 3 4 6 6 5 4 4 4 3 3 4 3 3 4 3 3 3 2 2 4 3 3 4 5 7 9 10 9 9 9 9 9 9 9
3 3 4 3 2 3 4 6 6 7 7 5 5 5 5 4 3 4 4 4 4 3 2 4 3 4 4 3 7 9 9 9 9 9 9 9 9 9
3 3 3 3 4 4 5 5 5 5 5 5 4 5 5 4 4 5 5 4 4 3 2 4 3 3 4 2 5 8 9 9 10 10 9 9 9 9
3 3 3 2 3 4 4 5 5 5 6 6 7 7 8 8 5 3 3 3 4 4 2 2 3 3 3 2 3 6 7 8 9 9 9 9 9 8
3 2 1 1 3 4 4 5 6 6 6 6 6 7 6 6 7 5 3 3 4 4 2 2 3 2 3 2 1 2 4 6 8 8 8 9 8 5
4 3 2 2 4 6 5 5 7 7 6 6 5 4 3 3 3 4 4 4 4 4 3 1 2 2 3 3 3 2 3 2 3 4 7 8 8 6
4 3 3 6 7 8 6 7 9 7 5 5 4 3 3 3 3 4 4 5 5 5 4 2 2 3 3 4 4 3 3 3 2 3 3 5 6 7
4 6 7 8 8 7 8 8 6 4 4 4 4 3 3 4 3 3 3 3 3 4 4 3 3 3 3 3 4 3 3 3 2 2 2 2 3 3
4 6 9 9 8 7 6 4 4 3 3 3 4 4 3 3 2 2 2 2 2 3 2 2 3 3 3 4 3 4 3 3 2 2 2 2 2 2
4 5 4 4 3 3 3 2 2 2 3 3 4 4 3 2 2 2 2 2 2 3 3 2 2 2 3 3 4 4 3 3 3 3 2 2 2 2
4 4 4 4 3 3 3 3 2 2 2 3 3 3 3 3 3 2 2 2 3 3 3 2 2 2 3 3 4 4 3 3 3 3 3 3 3 2
3 4 4 3 3 3 3 3 3 2 2 2 2 3 3 3 3 3 3 2 3 3 3 2 2 2 3 4 4 3 3 3 3 3 3 3 3 2
3 3 3 3 2 2 3 3 3 3 2 2 2 2 3 3 3 3 3 3 3 3 3 3 2 2 3 4 4 4 4 4 3 3 3 2 1 1
2 2 3 3 3 2 2 3 3 3 3 3 2 3 3 4 4 4 4 4 4 3 3 3 4 4 3 2 2 3 3 3 3 3 3 2 1 2
2 2 3 3 2 2 2 3 3 3 3 2 3 3 4 4 4 5 4 4 3 3 3 3 4 3 2 3 3 3 3 2 1 2 3 1 1 2
2 2 3 3 2 2 2 3 4 3 3 3 3 3 4 4 4 4 4 4 4 3 3 3 3 3 3 3 2 2 2 2 1 1 2 3 3 4
Wind_Direction
279 283 276 283 285 290 282 266 273 290 289 292 298 305 194 168 168 194 196 207 210 213 218 224 230 234 236 238 242 245 249 248 246 246 246 245 243 243
249 260 268 280 293 289 288 293 280 271 281 282 291 298 326 319 199 232 244 223 216 213 219 223 226 229 231 234 240 243 245 248 247 246 244 243 243 245
268 258 259 268 283 293 295 290 283 274 277 287 282 283 301 306 310 274 253 232 224 217 219 220 222 226 229 232 235 237 240 244 246 246 245 244 244 246
275 273 272 273 272 277 291 294 292 282 276 284 287 277 257 242 243 263 277 267 255 225 220 219 223 226 230 232 233 232 235 238 244 246 246 246 246 246
278 271 266 274 278 280 281 289 288 291 278 275 278 277 274 269 259 273 273 271 274 244 226 225 228 230 232 229 229 228 229 232 236 239 242 243 245 246
292 289 289 285 282 287 280 281 285 289 287 285 285 286 279 276 261 267 278 270 275 269 244 236 230 231 233 228 230 228 225 227 230 234 236 236 238 241
300 299 284 280 279 275 284 285 285 282 288 284 283 287 282 286 272 262 273 282 269 264 266 265 238 231 231 233 232 229 226 225 225 229 234 236 237 239
305 305 283 264 270 266 273 277 270 264 274 279 281 289 283 275 275 278 282 294 292 277 288 282 261 249 236 226 218 220 223 223 223 225 230 234 237 240
295 304 305 305 296 284 275 265 264 258 250 259 275 278 282 286 279 279 278 274 273 282 291 284 280 274 268 244 210 215 220 221 222 223 229 234 238 240
287 280 291 309 317 313 296 286 276 271 259 251 260 274 278 278 271 267 268 274 273 269 254 277 287 286 293 259 212 215 220 223 225 224 227 232 238 242
293 303 311 330 337 324 298 292 288 283 280 276 269 269 269 267 266 280 280 280 286 278 246 260 281 294 287 265 235 224 228 228 228 227 230 235 241 247
298 289 320 342 332 327 303 292 287 288 294 289 276 269 262 256 246 236 248 264 280 281 250 241 273 296 296 279 264 229 244 243 239 238 238 241 241 242
306 297 297 321 308 298 290 281 278 285 284 276 269 265 265 263 244 230 229 241 261 273 277 250 278 280 273 289 290 263 241 239 236 241 237 239 236 225
307 317 316 310 300 287 278 274 285 289 281 280 282 281 276 270 262 248 237 237 240 255 269 269 273 268 277 286 289 284 270 252 233 228 228 231 234 237
307 316 305 292 288 279 265 268 275 271 272 279 280 278 271 266 261 256 253 247 256 260 265 251 253 263 262 271 276 276 282 276 252 236 225 225 222 221
300 298 289 276 276 276 277 270 257 262 274 281 284 281 281 281 270 257 259 251 263 275 269 262 256 250 265 268 266 276 276 267 267 260 247 232 221 220
305 285 283 288 283 285 283 281 284 298 297 297 297 298 300 300 295 295 284 284 276 273 283 283 261 248 260 266 267 267 272 274 267 261 251 254 250 232
297 292 299 296 299 305 310 312 305 303 302 292 295 302 303 301 297 295 292 289 285 279 280 285 283 293 301 295 254 257 267 270 271 261 247 242 250 249
276 285 294 302 312 314 312 313 308 305 303 307 310 310 305 305 307 304 301 296 291 288 285 283 284 280 289 295 289 255 258 270 272 274 262 248 245 231
263 280 289 295 300 309 314 320 316 313 316 309 309 313 310 308 304 303 301 296 293 287 284 279 270 262 258 267 277 285 266 254 260 268 272 270 255 143
298 298 304 307 309 317 321 317 307 306 319 317 325 321 314 311 304 302 301 296 291 285 289 288 281 275 268 266 268 279 290 274 263 256 268 245 226 207
309 309 306 306 311 314 318 320 316 320 328 332 335 323 311 305 302 299 300 301 290 287 294 294 289 290 280 267 265 273 286 306 340 7 357 322 218 205
308 305 306 309 315 318 324 327 330 338 347 339 328 315 307 301 298 296 298 297 296 297 303 298 299 300 292 280 264 267 274 274 276 41 15 11 57 98